Regional Weather Roundup
Issued by NWS Green Bay, WI

Home | Current Version | Previous Version | Graphics & Text | Print | Product List | Glossary Off
Versions: 1 2 3 4 5 6 7 8 9 10 11 12 13 14 15 16 17 18 19 20 21 22 23 24 25 26 27 28 29 30 31 32 33 34 35 36 37 38 39 40 41 42 43 44 45 46 47 48 49 50

000
ASUS43 KGRB 060600
RWRGRB

NORTH-CENTRAL AND NORTHEAST WISCONSIN REGIONAL WEATHER ROUNDUP
NATIONAL WEATHER SERVICE GREEN BAY WI
1200 AM CST TUE DEC 06 2016

WIZ005-009-010>012-018-019-060700-
NORTH CENTRAL WISCONSIN

CITY           SKY/WX    TMP DP  RH WIND       PRES   REMARKS
IRONWOOD       MOCLDY    37  30  75 S10       29.72F
MANITOWISH WTR NOT AVBL
ARBOR VITAE    NOT AVBL
EAGLE RIVER    NOT AVBL
LAND O LAKES   NOT AVBL
RHINELANDER    PTCLDY    34  29  82 S7        29.78R
PHILLIPS       PTCLDY    32  29  88 S9        29.74S
ANTIGO         NOT AVBL
TOMAHAWK       NOT AVBL
MERRILL        MOCLDY    32  31  96 SW3       29.82R
$$

WIZ013-073-060700-
NORTHEAST WISCONSIN

CITY           SKY/WX    TMP DP  RH WIND       PRES   REMARKS
IRON MOUNTAIN  CLOUDY    32  30  92 SE9       29.85F FOG
MARINETTE      CLOUDY    37  35  92 S6        29.89F FOG
$$

WIZ017-030-035>037-045-060700-
CENTRAL WISCONSIN

CITY           SKY/WX    TMP DP  RH WIND       PRES   REMARKS
MEDFORD        NOT AVBL
WAUSAU         CLOUDY    31  29  92 SE5       29.79F
MOSINEE        NOT AVBL
MARSHFIELD     MOCLDY    31  29  92 SE14      29.78F FOG
WISC RAPIDS    CLOUDY    32  31  96 S5        29.84R
STEVENS POINT  NOT AVBL
WAUPACA        NOT AVBL
SHAWANO        CLOUDY    34  32  91 CALM      29.89R
CLINTONVILLE   CLOUDY    32  32 100 S5        29.88S FOG
WAUTOMA        CLOUDY    32  30  92 SE8       29.85F
$$

WIZ038-039-048-051-060700-
FOX VALLEY

CITY           SKY/WX    TMP DP  RH WIND       PRES   REMARKS
NWS GREEN BAY  CLOUDY    36  34  93 SE12      29.88F
APPLETON       NOT AVBL
OSHKOSH        CLOUDY    32  30  92 S9        29.88S FOG
FOND DU LAC    CLOUDY    34  30  85 S13       29.89F FOG
$$

WIZ022-050-052-060700-
EAST CENTRAL WISCONSIN

CITY           SKY/WX    TMP DP  RH WIND       PRES   REMARKS
EPHRAIM        NOT AVBL
WASHINGTON ISL NOT AVBL
STURGEON BAY   CLOUDY    38  37  97 S13       29.89F
MANITOWOC      NOT AVBL
SHEBOYGAN      CLOUDY    38  35  89 S8        29.90F
$$

LMZ563-521-522-541>543-060700-
LAKESHORE

STATION/POSITION TIME  TEMP    WIND        PRES    VSBY  WAVE
                       AIR SEA DIR/SP/G                  HT/PER
                 (UTC) (F)     (DEG/KT/KT) (MB)    (MI)  (FT/S)
SHEBOYGAN LKSHOR 0500   40     170/ 17/ 19 1013.3F
KEWAUNEE LKSHORE 0530   40     170/ 15/ 17 1012.4F
NORTHPORT PIER   0540   42     120/ 16/ 21 1011.9F
SISTER BAY LKSHO 0508   36     140/  8/ 11   N/A
CHAMBERS ISLAND  0540   38     120/  6/  9 1012.2F
MENOMINEE LKSHOR 0530   38     150/ 11/ 17 1011.4F
$$



USA.gov is the U.S. government's official web portal to all federal, state and local government web resources and services.